Location: Newark
(41.9364°N, 2.8061°E)
Time: 17:24:21
(UTC+00:00)

X-37B - Pass Details

Date: 07 August 2021
Orbit: 381 x 393 km, 45.0° (Epoch: 29 August)

Event Time Altitude Azimuth Distance (km) Brightness Sun altitude
Exits shadow 04:05:33 - 285° (WNW) 1,906 3.7 -8.0°
Reaches altitude 10° 04:06:49 10° 290° (WNW) 1,397 3.0 -7.8°
Maximum altitude 04:09:52 47° 6° (N) 511 1.5 -7.3°
Drops below altitude 10° 04:12:55 10° 82° (E) 1,397 4.7 -6.8°
Sets 04:15:02 0° 89° (E) 2,250 5.7 -6.4°
